Benndale, Mississippi
Current Conditions -  °F | °C
As of 4:53 AM on Friday 24 Oct 2014 (Local Time) from KHBG Reporting Station
Clear Clear  
Wind Chill: 48°   Ceiling: Unl
Heat Index: 48°   Visibility: 10mi
Dew Point: 46°   Wind: 0mph
Humidity: 93%   Direction: NA
Pressure: 30.1"   Gusts: NA
Location:  31.0532°N, 88.8084°W
Report Text: KHBG 240953Z AUTO 00000KT 10SM CLR 09/08 A3010 RMK AO2 SLP192 T00890078
Loading
Personal Weather Stations






























Interactive Weather Map
Tropical Storm Tracking
New forecast layout! Learn more

10-Day Weather Forecast

Advertisements
Track Severe Weather on mobile